Flag for U.S.A. Weather past 2 weeks in Norfolk, Virginia, U.S.A.

Now
73 °F

Passing clouds.


Feels Like: 75 °F
Forecast: 44 / 70 °F
Wind: 15 mph from Southwest

Location: Norfolk Naval Air Station

Current Time: Mar 31, 2015 at 6:55:23 PM

Latest Report: Mar 31, 2015 at 5:59 PM


Visibility: 10 mi

Pressure: 29.67 "Hg

Humidity: 22%

Dew point: 32 °F

Location of NorfolkLocation

Historic Weather in Norfolk — Graph

°F

Norfolk temperature yesterday

Maximum temperature yesterday: 62 °F (at 4:59 PM)
Minimum temperature yesterday: 34 °F (at 8:59 AM)
Average temperature yesterday: 50 °F

Past Weeks' High & Low Weather Summary

 TemperatureHumidityPressure
High81 °F (Mar 17, 12:59 PM)86% (Mar 20, 10:59 AM)30.42 "Hg (Mar 20, 10:59 AM)
Low32 °F (Mar 29, 5:59 AM)18% (Mar 18, 3:59 PM)29.66 "Hg (Mar 27, 3:59 AM)
Average52 °F54%30.08 "Hg
* Reported Mar 16 4:59 PM — Mar 31 4:59 PM, Norfolk, Weather by CustomWeather, © 2015

Note: Actual official high and low records may vary slightly from our data, if they occured in-between our weather recording intervals... More about our weather records

Advertising

Norfolk weather history for previous 24 hours

 ConditionsComfort  
Time TempWeatherWind HumidityBarometerVisibility
4:59 PM
Tue, Mar 31
73 °FPassing clouds.21 mph24%29.70 "Hg10 mi
3:59 PM73 °FPassing clouds.16 mph23%29.72 "Hg10 mi
2:59 PM73 °FPassing clouds.18 mph23%29.78 "Hg10 mi
1:59 PM72 °FPassing clouds.15 mph23%29.83 "Hg10 mi
12:59 PM69 °FPassing clouds.14 mph23%29.89 "Hg10 mi
11:59 AM68 °FPassing clouds.13 mph24%29.93 "Hg10 mi
10:59 AM65 °FPassing clouds.12 mph26%29.97 "Hg10 mi
8:59 AM55 °FPassing clouds.9 mph40%30.01 "Hg10 mi
7:59 AM49 °FPassing clouds.8 mph59%30.01 "Hg10 mi
6:59 AM45 °FPassing clouds.No wind68%30.01 "Hg10 mi
5:59 AM44 °FPassing clouds.No wind68%29.99 "Hg10 mi
4:59 AM47 °FPassing clouds.No wind71%29.99 "Hg10 mi
3:59 AM48 °FPassing clouds.No wind74%29.99 "Hg10 mi
2:59 AM48 °FPassing clouds.No wind74%30.00 "Hg10 mi
1:59 AM49 °FClear.No wind71%30.01 "Hg10 mi
12:59 AM49 °FClear.6 mph77%30.00 "Hg10 mi
11:59 PM
Mon, Mar 30
52 °FPassing clouds.6 mph72%29.99 "Hg10 mi
10:59 PM52 °FClear.8 mph75%29.98 "Hg10 mi
9:56 PM54 °FClear.7 mph72%29.98 "Hg10 mi
8:59 PM56 °FClear.9 mph67%29.96 "Hg10 mi
7:59 PM59 °FPassing clouds.7 mph58%29.92 "Hg10 mi
6:59 PM61 °FPassing clouds.7 mph54%29.90 "Hg10 mi
Weather by CustomWeather, © 2015

See weather overviewHow to use our weather pages